Location: Middle Street
(51.7167°N, 0.0333°E)
Time: 20:04:13
(UTC+00:00)

Cosmos 2227 Rocket - Pass Details

Date: 20 January 2021
Orbit: 837 x 846 km, 71.0° (Epoch: 27 February)

Event Time Altitude Azimuth Distance (km) Brightness Sun altitude
Rises 18:03:02 0° 261° (W) 3,400 7.3 -14.3°
Reaches altitude 10° 18:06:06 10° 277° (W) 2,469 5.8 -14.8°
Maximum altitude 18:10:20 21° 326° (NW) 1,816 4.2 -15.4°
Drops below altitude 10° 18:14:36 10° 15° (NNE) 2,480 4.4 -16.1°
Enters shadow 18:15:49 - 22° (NNE) 2,826 4.6 -16.3°
